Regional Weather Roundup
Issued by NWS

Home | Current Version | Previous Version | Text Only | Print | Product List | Glossary On
Versions: 1 2 3 4 5 6 7 8 9 10 11 12 13 14 15 16 17 18 19 20 21 22 23 24 25 26 27
000
ASUS45 KBOU 011910
RWRCO

WEATHER ROUNDUP FOR COLORADO
NATIONAL WEATHER SERVICE DENVER/BOULDER CO
100 PM MDT SAT OCT 01 2016

NOTE: "FAIR" INDICATES FEW OR NO CLOUDS BELOW 12000 FEET WITH NO
SIGNIFICANT WEATHER AND/OR OBSTRUCTIONS TO VISIBILITY.

COZ001>005-013-030-031-012000-
...NORTHWEST COLORADO...

CITY           SKY/WX    TMP DP  RH WIND       PRES   REMARKS
CRAIG          FAIR      70  42  36 W9G18     30.19F
HAYDEN         FAIR      64  39  39 SW5       30.21F
MEEKER         FAIR      68  45  43 W7        30.20F
MOUNT WERNER   NOT AVBL
STEAMBOAT SPGS FAIR      64  41  42 CALM      30.23F
WALDEN           N/A     59  36  41 NW5       30.29F
$$

COZ006>008-011-012000-
...WEST CENTRAL VALLEYS...

CITY           SKY/WX    TMP DP  RH WIND       PRES   REMARKS
GRAND JUNCTION FAIR      71  45  39 VRB5      30.16F
MONTROSE       FAIR      70  44  39 N5        30.21F
EAGLE          SUNNY     64  41  42 CALM      30.24F
RIFLE          FAIR      69  46  43 W9        30.18F
DELTA          NOT AVBL
NUCLA          FAIR      70  43  37 W3        30.27F
$$

COZ017>023-064>068-012000-
...SOUTHWEST COLORADO...

CITY           SKY/WX    TMP DP  RH WIND       PRES   REMARKS
DURANGO        FAIR      69  41  36 W8        30.25F
CORTEZ         LGT RAIN  62  53  72 SW9       30.24F
PAGOSA SPRINGS FAIR      65  36  33 SW12      30.31F
TELLURIDE      FAIR      58  37  46 SW7       30.40S
WOLF CREEK PAS NOT AVBL
$$

COZ009-010-012-014-032>034-037-058>063-012000-
...CENTRAL COLORADO...

CITY           SKY/WX    TMP DP  RH WIND       PRES   REMARKS
ASPEN          FAIR      65  37  35 NE7       30.26F
BUENA VISTA    FAIR      67  35  29 SE7       30.26F
COPPER MTN     PTSUNNY   46  28  49 NW10      30.51S
BERTHOUD PASS  FAIR      39  30  70 N13G22    30.53F
COTTONWOOD PAS CLOUDY    63  34  34 E7        30.38S
GUNNISON       FAIR      63  39  42 SW9       30.29F
KREMMLING      FAIR      54  41  62 CALM      30.29F
LEADVILLE      FAIR      55  24  30 NW12G22   30.36F
SALIDA         PTSUNNY   71  35  27 SW9       30.31F
SUNLIGHT       FAIR      50  41  71 W7        30.48F
WILKERSON PASS FAIR      52  36  54 SW6       30.49F
$$

COZ069>075-012000-
...SAN LUIS VALLEY/SANGRE DE CRISTO MOUNTAINS...

CITY           SKY/WX    TMP DP  RH WIND       PRES   REMARKS
ALAMOSA        FAIR      66  37  34 MISG      30.27F
LA VETA PASS   FAIR      59  30  33 MISG      30.41F
SAGUACHE       FAIR      66  37  34 CALM      30.28F
$$

COZ035-036-038>040-012000-
...NORTHERN COLORADO FRONT RANGE...

CITY           SKY/WX    TMP DP  RH WIND       PRES   REMARKS
DENVER INTL AP FAIR      76  41  28 VRB3      30.11F
DMNS CITY PARK   N/A     78  40  25 E6        30.10F
AURORA         MOSUNNY   76  40  27 NE9G18    30.12F
FRONT RANGE AP MOSUNNY   75  41  29 S6        30.12F
ERIE MUNI ARPT FAIR      76  37  24 NE6       30.09F
BOULDER MUN AP FAIR      77  39  25 E5        30.10F
CENTENNIAL     FAIR      75  38  26 E7        30.13F
BROOMFIELD     MOSUNNY   75  39  27 E5        30.13F
FORT COLLINS   FAIR      77  41  27 SE9       30.07F
LONGMONT       FAIR      80  41  24 E8        30.11F
$$

COZ041-046-047-076>085-087-088-012000-
...PIKES PEAK/PALMER DIVIDE AND SOUTHERN FOOTHILLS...

CITY           SKY/WX    TMP DP  RH WIND       PRES   REMARKS
COLO. SPRINGS  PTSUNNY   72  42  34 SW7       30.17F
A. F. ACADEMY  FAIR      71  41  33 SE1       30.17F
SCHRIEVER AFB  NOT AVBL
ELLICOTT       NOT AVBL
FALCON         FAIR      74  35  24 W3        30.21F
FORT CARSON    FAIR      72  43  35 S9        30.14F
LIMON          FAIR      76  40  27 W8        30.12F
MONUMENT HILL  PTSUNNY   68  37  32 CALM      30.22F
TRINIDAD       FAIR      75  39  27 E5        30.14F
$$

COZ042>045-048>051-090-091-012000-
...NORTHEAST COLORADO...

CITY           SKY/WX    TMP DP  RH WIND       PRES   REMARKS
GREELEY ARPT   FAIR      79  43  27 SE10      30.09F
AKRON          FAIR      77  43  29 MISG      30.08F
BURLINGTON     FAIR      74  48  39 E13       30.08F
WRAY           FAIR      79  46  31 SE15      30.06
STERLING       FAIR      79  48  34 SE6       30.03F
HOLYOKE        FAIR      79  50  36 S16       30.06F
FORT MORGAN    FAIR      78  42  28 SE6       30.08F
$$

COZ086-089-092>099-012000-
...SOUTHEAST COLORADO...

CITY           SKY/WX    TMP DP  RH WIND       PRES   REMARKS
PUEBLO         FAIR      76  45  33 VRB5      30.08F
LA JUNTA       FAIR      76  48  37 SE5       30.07F
LAMAR          FAIR      74  51  44 NE6       30.04F
SPRINGFIELD      N/A     76  49  38 E6        30.07F
$$




USA.gov is the U.S. government's official web portal to all federal, state and local government web resources and services.